Location: Antioch Baptist Church
(32.6696°N, 85.7327°W)
Time: 11:08:15
(UTC+00:00)

Cosmos 1697 Rocket - Pass Details

Date: 14 July 2020
Orbit: 834 x 842 km, 71.0° (Epoch: 09 August)

Event Time Altitude Azimuth Distance (km) Brightness Sun altitude
Rises 07:16:20 0° 352° (N) 3,388 6.6 -31.9°
Reaches altitude 10° 07:19:09 10° 4° (N) 2,450 5.9 -31.6°
Maximum altitude 07:23:54 28° 62° (ENE) 1,533 4.4 -31.2°
Enters shadow 07:27:14 16° 110° (ESE) 2,033 4.7 -30.9°
